Time,TemperatureF,DewpointF,PressureIn,WindDirection,WindDirectionDegrees,WindSpeedMPH,WindSpeedGustMPH,Humidity,HourlyPrecipIn,Conditions,Clouds,dailyrainin,SoftwareType,DateUTC
2013-05-12 00:01:00,62.0,42.0,26.95,NE,45,3.0,6.0,49,0.00,,,0.00,Rainwise IP-100,2013-05-12 06:01:00,
2013-05-12 00:06:00,61.0,41.0,26.96,East,90,0.0,6.0,48,0.00,,,0.00,Rainwise IP-100,2013-05-12 06:06:00,
2013-05-12 00:11:00,61.0,41.0,26.96,East,90,0.0,1.0,49,0.00,,,0.00,Rainwise IP-100,2013-05-12 06:11:00,
2013-05-12 00:16:00,61.0,42.0,26.97,SE,135,4.0,4.0,50,0.00,,,0.00,Rainwise IP-100,2013-05-12 06:16:00,
2013-05-12 00:21:00,61.0,42.0,26.97,SE,135,1.0,4.0,50,0.00,,,0.00,Rainwise IP-100,2013-05-12 06:21:00,
2013-05-12 00:26:00,61.0,42.0,26.97,SSE,157,2.0,5.0,50,0.00,,,0.00,Rainwise IP-100,2013-05-12 06:26:00,
2013-05-12 00:31:00,61.0,42.0,26.97,SE,135,0.0,5.0,50,0.00,,,0.00,Rainwise IP-100,2013-05-12 06:31:00,
2013-05-12 00:36:00,60.0,42.0,26.97,East,90,2.0,3.0,51,0.00,,,0.00,Rainwise IP-100,2013-05-12 06:36:00,
2013-05-12 00:41:00,60.0,42.0,26.97,ENE,67,3.0,7.0,52,0.00,,,0.00,Rainwise IP-100,2013-05-12 06:41:00,
2013-05-12 00:46:00,60.0,41.0,26.98,ESE,112,1.0,5.0,50,0.00,,,0.00,Rainwise IP-100,2013-05-12 06:46:00,
2013-05-12 00:51:00,60.0,42.0,26.98,East,90,1.0,6.0,51,0.00,,,0.00,Rainwise IP-100,2013-05-12 06:51:00,
2013-05-12 00:56:00,60.0,41.0,26.98,ENE,67,0.0,6.0,50,0.00,,,0.00,Rainwise IP-100,2013-05-12 06:56:00,
2013-05-12 01:01:00,60.0,41.0,26.98,NE,45,3.0,4.0,50,0.00,,,0.00,Rainwise IP-100,2013-05-12 07:01:00,
2013-05-12 01:06:00,60.0,42.0,26.98,East,90,3.0,4.0,52,0.00,,,0.00,Rainwise IP-100,2013-05-12 07:06:00,
2013-05-12 01:11:00,59.0,41.0,26.98,ENE,67,0.0,4.0,52,0.00,,,0.00,Rainwise IP-100,2013-05-12 07:11:00,
2013-05-12 01:16:00,59.0,42.0,26.99,NE,45,0.0,4.0,53,0.00,,,0.00,Rainwise IP-100,2013-05-12 07:16:00,
2013-05-12 01:21:00,58.0,42.0,26.99,SSE,157,5.0,5.0,55,0.00,,,0.00,Rainwise IP-100,2013-05-12 07:21:00,
2013-05-12 01:26:00,58.0,41.0,27.00,SSE,157,0.0,5.0,54,0.00,,,0.00,Rainwise IP-100,2013-05-12 07:26:00,
2013-05-12 01:31:00,57.0,41.0,27.00,SSE,157,0.0,0.0,56,0.00,,,0.00,Rainwise IP-100,2013-05-12 07:31:00,
2013-05-12 01:36:00,57.0,42.0,27.00,SSE,157,0.0,0.0,58,0.00,,,0.00,Rainwise IP-100,2013-05-12 07:36:00,
2013-05-12 01:41:00,56.0,42.0,27.00,SSE,157,0.0,1.0,59,0.00,,,0.00,Rainwise IP-100,2013-05-12 07:41:00,
2013-05-12 01:46:00,56.0,42.0,27.01,SE,135,3.0,4.0,60,0.00,,,0.00,Rainwise IP-100,2013-05-12 07:46:00,
2013-05-12 01:51:00,58.0,43.0,27.01,ESE,112,3.0,6.0,58,0.00,,,0.00,Rainwise IP-100,2013-05-12 07:51:00,
2013-05-12 01:56:00,58.0,43.0,27.00,WSW,247,2.0,5.0,57,0.00,,,0.00,Rainwise IP-100,2013-05-12 07:56:00,
2013-05-12 02:01:00,57.0,42.0,27.00,ESE,112,0.0,3.0,57,0.00,,,0.00,Rainwise IP-100,2013-05-12 08:01:00,
2013-05-12 02:06:00,57.0,42.0,27.00,ENE,67,3.0,3.0,58,0.00,,,0.00,Rainwise IP-100,2013-05-12 08:06:00,
2013-05-12 02:11:00,57.0,42.0,27.00,WNW,292,0.0,4.0,57,0.00,,,0.00,Rainwise IP-100,2013-05-12 08:11:00,
2013-05-12 02:16:00,57.0,42.0,27.00,ENE,67,0.0,5.0,58,0.00,,,0.00,Rainwise IP-100,2013-05-12 08:16:00,
2013-05-12 02:21:00,57.0,42.0,27.00,East,90,0.0,4.0,58,0.00,,,0.00,Rainwise IP-100,2013-05-12 08:21:00,
2013-05-12 02:26:00,57.0,42.0,27.00,ESE,112,4.0,0.0,58,0.00,,,0.00,Rainwise IP-100,2013-05-12 08:26:00,
2013-05-12 02:31:00,57.0,43.0,27.00,SE,135,2.0,5.0,59,0.00,,,0.00,Rainwise IP-100,2013-05-12 08:31:00,
2013-05-12 02:36:00,57.0,43.0,27.00,SSE,157,1.0,4.0,59,0.00,,,0.00,Rainwise IP-100,2013-05-12 08:36:00,
2013-05-12 02:41:00,57.0,43.0,27.00,SSE,157,3.0,4.0,60,0.00,,,0.00,Rainwise IP-100,2013-05-12 08:41:00,
2013-05-12 02:46:00,57.0,44.0,27.00,ESE,112,0.0,5.0,61,0.00,,,0.00,Rainwise IP-100,2013-05-12 08:46:00,
2013-05-12 02:51:00,56.0,42.0,27.00,East,90,1.0,6.0,61,0.00,,,0.00,Rainwise IP-100,2013-05-12 08:51:00,
2013-05-12 02:56:00,56.0,42.0,27.00,ESE,112,1.0,4.0,61,0.00,,,0.00,Rainwise IP-100,2013-05-12 08:56:00,
2013-05-12 03:01:00,56.0,43.0,27.00,South,180,2.0,3.0,62,0.00,,,0.00,Rainwise IP-100,2013-05-12 09:01:00,
2013-05-12 03:06:00,56.0,43.0,27.01,SSE,157,3.0,6.0,62,0.00,,,0.00,Rainwise IP-100,2013-05-12 09:06:00,
2013-05-12 03:11:00,56.0,43.0,27.01,ESE,112,2.0,6.0,62,0.00,,,0.00,Rainwise IP-100,2013-05-12 09:11:00,
2013-05-12 03:16:00,56.0,42.0,27.01,East,90,0.0,3.0,61,0.00,,,0.00,Rainwise IP-100,2013-05-12 09:16:00,
2013-05-12 03:21:00,56.0,42.0,27.01,East,90,2.0,6.0,61,0.00,,,0.00,Rainwise IP-100,2013-05-12 09:21:00,
2013-05-12 03:26:00,56.0,42.0,27.00,East,90,3.0,6.0,61,0.00,,,0.00,Rainwise IP-100,2013-05-12 09:26:00,
2013-05-12 03:31:00,57.0,44.0,27.00,East,90,0.0,6.0,61,0.00,,,0.00,Rainwise IP-100,2013-05-12 09:31:00,
2013-05-12 03:36:00,57.0,44.0,27.00,ESE,112,2.0,6.0,61,0.00,,,0.00,Rainwise IP-100,2013-05-12 09:36:00,
2013-05-12 03:41:00,57.0,44.0,27.00,East,90,2.0,4.0,61,0.00,,,0.00,Rainwise IP-100,2013-05-12 09:41:00,
2013-05-12 03:46:00,56.0,42.0,27.00,NE,45,2.0,5.0,61,0.00,,,0.00,Rainwise IP-100,2013-05-12 09:46:00,
2013-05-12 03:51:00,56.0,42.0,27.00,ENE,67,2.0,5.0,61,0.00,,,0.00,Rainwise IP-100,2013-05-12 09:51:00,
2013-05-12 03:56:00,56.0,42.0,27.01,NE,45,0.0,4.0,61,0.00,,,0.00,Rainwise IP-100,2013-05-12 09:56:00,
2013-05-12 04:01:00,56.0,42.0,27.01,WNW,292,0.0,4.0,61,0.00,,,0.00,Rainwise IP-100,2013-05-12 10:01:00,
2013-05-12 04:06:00,55.0,43.0,27.01,West,270,1.0,5.0,63,0.00,,,0.00,Rainwise IP-100,2013-05-12 10:06:00,
2013-05-12 04:11:00,55.0,43.0,27.01,West,270,4.0,4.0,64,0.00,,,0.00,Rainwise IP-100,2013-05-12 10:11:00,
2013-05-12 04:16:00,55.0,44.0,27.01,West,270,0.0,5.0,65,0.00,,,0.00,Rainwise IP-100,2013-05-12 10:16:00,
2013-05-12 04:21:00,54.0,42.0,27.01,West,270,0.0,0.0,65,0.00,,,0.00,Rainwise IP-100,2013-05-12 10:21:00,
2013-05-12 04:26:00,54.0,43.0,27.02,SE,135,0.0,2.0,67,0.00,,,0.00,Rainwise IP-100,2013-05-12 10:26:00,
2013-05-12 04:31:00,54.0,44.0,27.02,ESE,112,0.0,2.0,68,0.00,,,0.00,Rainwise IP-100,2013-05-12 10:31:00,
2013-05-12 04:36:00,53.0,42.0,27.03,ESE,112,0.0,0.0,67,0.00,,,0.00,Rainwise IP-100,2013-05-12 10:36:00,
2013-05-12 04:39:00,53.0,42.0,27.03,ESE,112,0.0,2.0,68,0.00,,,0.00,Rainwise IP-100,2013-05-12 10:39:00,
2013-05-12 04:44:00,53.0,43.0,27.03,East,90,1.0,2.0,69,0.00,,,0.00,Rainwise IP-100,2013-05-12 10:44:00,
2013-05-12 04:49:00,53.0,43.0,27.03,NE,45,3.0,6.0,69,0.00,,,0.00,Rainwise IP-100,2013-05-12 10:49:00,
2013-05-12 04:54:00,53.0,42.0,27.02,NE,45,0.0,4.0,68,0.00,,,0.00,Rainwise IP-100,2013-05-12 10:54:00,
2013-05-12 04:59:00,53.0,43.0,27.02,ENE,67,0.0,2.0,69,0.00,,,0.00,Rainwise IP-100,2013-05-12 10:59:00,
2013-05-12 05:04:00,52.0,42.0,27.03,ENE,67,0.0,1.0,70,0.00,,,0.00,Rainwise IP-100,2013-05-12 11:04:00,
2013-05-12 05:09:00,52.0,43.0,27.03,ENE,67,0.0,0.0,71,0.00,,,0.00,Rainwise IP-100,2013-05-12 11:09:00,
2013-05-12 05:14:00,51.0,42.0,27.03,SSW,202,0.0,0.0,72,0.00,,,0.00,Rainwise IP-100,2013-05-12 11:14:00,
2013-05-12 05:19:00,51.0,43.0,27.03,SSW,202,0.0,0.0,73,0.00,,,0.00,Rainwise IP-100,2013-05-12 11:19:00,
2013-05-12 05:24:00,51.0,44.0,27.04,SSW,202,0.0,0.0,75,0.00,,,0.00,Rainwise IP-100,2013-05-12 11:24:00,
2013-05-12 05:29:00,51.0,43.0,27.04,East,90,2.0,4.0,74,0.00,,,0.00,Rainwise IP-100,2013-05-12 11:29:00,
2013-05-12 05:34:00,51.0,43.0,27.03,East,90,0.0,3.0,73,0.00,,,0.00,Rainwise IP-100,2013-05-12 11:34:00,
2013-05-12 05:39:00,51.0,43.0,27.03,East,90,0.0,0.0,74,0.00,,,0.00,Rainwise IP-100,2013-05-12 11:39:00,
2013-05-12 05:44:00,51.0,44.0,27.04,East,90,0.0,0.0,75,0.00,,,0.00,Rainwise IP-100,2013-05-12 11:44:00,
2013-05-12 05:49:00,50.0,42.0,27.04,East,90,0.0,0.0,75,0.00,,,0.00,Rainwise IP-100,2013-05-12 11:49:00,
2013-05-12 05:54:00,50.0,43.0,27.05,East,90,0.0,0.0,77,0.00,,,0.00,Rainwise IP-100,2013-05-12 11:54:00,
2013-05-12 05:59:00,49.0,42.0,27.05,East,90,0.0,0.0,78,0.00,,,0.00,Rainwise IP-100,2013-05-12 11:59:00,
2013-05-12 06:04:00,50.0,43.0,27.05,ENE,67,2.0,5.0,78,0.00,,,0.00,Rainwise IP-100,2013-05-12 12:04:00,
2013-05-12 06:09:00,50.0,43.0,27.05,ENE,67,0.0,3.0,77,0.00,,,0.00,Rainwise IP-100,2013-05-12 12:09:00,
2013-05-12 06:14:00,50.0,43.0,27.05,ENE,67,0.0,0.0,78,0.00,,,0.00,Rainwise IP-100,2013-05-12 12:14:00,
2013-05-12 06:19:00,50.0,43.0,27.05,ESE,112,1.0,2.0,79,0.00,,,0.00,Rainwise IP-100,2013-05-12 12:19:00,
2013-05-12 06:24:00,50.0,43.0,27.05,ESE,112,2.0,3.0,78,0.00,,,0.00,Rainwise IP-100,2013-05-12 12:24:00,
2013-05-12 06:29:00,51.0,44.0,27.05,East,90,4.0,6.0,77,0.00,,,0.00,Rainwise IP-100,2013-05-12 12:29:00,
2013-05-12 06:34:00,51.0,44.0,27.05,East,90,1.0,6.0,76,0.00,,,0.00,Rainwise IP-100,2013-05-12 12:34:00,
2013-05-12 06:39:00,51.0,44.0,27.05,ENE,67,4.0,6.0,76,0.00,,,0.00,Rainwise IP-100,2013-05-12 12:39:00,
2013-05-12 06:44:00,51.0,44.0,27.05,ENE,67,2.0,6.0,76,0.00,,,0.00,Rainwise IP-100,2013-05-12 12:44:00,
2013-05-12 06:49:00,51.0,44.0,27.05,ESE,112,0.0,5.0,75,0.00,,,0.00,Rainwise IP-100,2013-05-12 12:49:00,
2013-05-12 06:54:00,52.0,44.0,27.04,ESE,112,1.0,4.0,74,0.00,,,0.00,Rainwise IP-100,2013-05-12 12:54:00,
2013-05-12 06:59:00,51.0,44.0,27.04,ESE,112,3.0,3.0,75,0.00,,,0.00,Rainwise IP-100,2013-05-12 12:59:00,
2013-05-12 07:04:00,52.0,44.0,27.04,East,90,1.0,5.0,75,0.00,,,0.00,Rainwise IP-100,2013-05-12 13:04:00,
2013-05-12 07:09:00,52.0,43.0,27.04,SSE,157,0.0,4.0,73,0.00,,,0.00,Rainwise IP-100,2013-05-12 13:09:00,
2013-05-12 07:14:00,53.0,43.0,27.03,East,90,3.0,3.0,71,0.00,,,0.00,Rainwise IP-100,2013-05-12 13:14:00,
2013-05-12 07:19:00,54.0,45.0,27.03,SE,135,1.0,5.0,71,0.00,,,0.00,Rainwise IP-100,2013-05-12 13:19:00,
2013-05-12 07:24:00,54.0,44.0,27.02,ESE,112,1.0,4.0,69,0.00,,,0.00,Rainwise IP-100,2013-05-12 13:24:00,
2013-05-12 07:29:00,55.0,45.0,27.02,ENE,67,0.0,4.0,68,0.00,,,0.00,Rainwise IP-100,2013-05-12 13:29:00,
2013-05-12 07:34:00,55.0,45.0,27.03,SE,135,2.0,4.0,68,0.00,,,0.00,Rainwise IP-100,2013-05-12 13:34:00,
2013-05-12 07:39:00,55.0,45.0,27.03,SSE,157,0.0,4.0,68,0.00,,,0.00,Rainwise IP-100,2013-05-12 13:39:00,
2013-05-12 07:44:00,55.0,44.0,27.02,ENE,67,2.0,5.0,66,0.00,,,0.00,Rainwise IP-100,2013-05-12 13:44:00,
2013-05-12 07:49:00,55.0,44.0,27.02,ENE,67,5.0,5.0,66,0.00,,,0.00,Rainwise IP-100,2013-05-12 13:49:00,
2013-05-12 07:54:00,56.0,45.0,27.02,SE,135,2.0,6.0,66,0.00,,,0.00,Rainwise IP-100,2013-05-12 13:54:00,
2013-05-12 07:59:00,56.0,45.0,27.02,SE,135,2.0,3.0,66,0.00,,,0.00,Rainwise IP-100,2013-05-12 13:59:00,
2013-05-12 08:04:00,56.0,45.0,27.01,East,90,0.0,3.0,66,0.00,,,0.00,Rainwise IP-100,2013-05-12 14:04:00,
2013-05-12 08:09:00,57.0,45.0,27.01,WNW,292,0.0,1.0,64,0.00,,,0.00,Rainwise IP-100,2013-05-12 14:09:00,
2013-05-12 08:14:00,57.0,44.0,27.01,SW,225,0.0,3.0,62,0.00,,,0.00,Rainwise IP-100,2013-05-12 14:14:00,
2013-05-12 08:19:00,58.0,45.0,27.01,South,180,1.0,2.0,61,0.00,,,0.00,Rainwise IP-100,2013-05-12 14:19:00,
2013-05-12 08:24:00,58.0,44.0,27.00,South,180,3.0,4.0,60,0.00,,,0.00,Rainwise IP-100,2013-05-12 14:24:00,
2013-05-12 08:29:00,59.0,45.0,27.00,South,180,0.0,4.0,59,0.00,,,0.00,Rainwise IP-100,2013-05-12 14:29:00,
2013-05-12 08:34:00,60.0,45.0,26.99,SSE,157,2.0,4.0,58,0.00,,,0.00,Rainwise IP-100,2013-05-12 14:34:00,
2013-05-12 08:39:00,60.0,45.0,26.99,SSE,157,2.0,4.0,57,0.00,,,0.00,Rainwise IP-100,2013-05-12 14:39:00,
2013-05-12 08:44:00,61.0,45.0,26.99,WSW,247,0.0,4.0,55,0.00,,,0.00,Rainwise IP-100,2013-05-12 14:44:00,
2013-05-12 08:49:00,62.0,45.0,26.99,SE,135,0.0,2.0,54,0.00,,,0.00,Rainwise IP-100,2013-05-12 14:49:00,
2013-05-12 08:54:00,63.0,46.0,26.97,SE,135,0.0,1.0,54,0.00,,,0.00,Rainwise IP-100,2013-05-12 14:54:00,
2013-05-12 08:59:00,63.0,45.0,26.97,SE,135,0.0,2.0,52,0.00,,,0.00,Rainwise IP-100,2013-05-12 14:59:00,
2013-05-12 09:04:00,64.0,45.0,26.97,ESE,112,0.0,2.0,50,0.00,,,0.00,Rainwise IP-100,2013-05-12 15:04:00,
2013-05-12 09:09:00,64.0,44.0,26.97,NNE,22,4.0,6.0,49,0.00,,,0.00,Rainwise IP-100,2013-05-12 15:09:00,
2013-05-12 09:14:00,64.0,45.0,26.96,WNW,292,2.0,5.0,50,0.00,,,0.00,Rainwise IP-100,2013-05-12 15:14:00,
2013-05-12 09:19:00,64.0,45.0,26.96,NW,315,1.0,5.0,50,0.00,,,0.00,Rainwise IP-100,2013-05-12 15:19:00,
2013-05-12 09:24:00,65.0,45.0,26.96,NE,45,4.0,6.0,48,0.00,,,0.00,Rainwise IP-100,2013-05-12 15:24:00,
2013-05-12 09:29:00,65.0,44.0,26.96,ENE,67,0.0,5.0,47,0.00,,,0.00,Rainwise IP-100,2013-05-12 15:29:00,
2013-05-12 09:34:00,65.0,45.0,26.95,East,90,2.0,5.0,48,0.00,,,0.00,Rainwise IP-100,2013-05-12 15:34:00,
2013-05-12 09:39:00,66.0,44.0,26.95,ESE,112,0.0,4.0,45,0.00,,,0.00,Rainwise IP-100,2013-05-12 15:39:00,
2013-05-12 09:44:00,65.0,44.0,26.95,West,270,1.0,6.0,47,0.00,,,0.00,Rainwise IP-100,2013-05-12 15:44:00,
2013-05-12 09:49:00,66.0,45.0,26.95,WSW,247,0.0,6.0,47,0.00,,,0.00,Rainwise IP-100,2013-05-12 15:49:00,
2013-05-12 09:54:00,66.0,45.0,26.95,WNW,292,4.0,6.0,47,0.00,,,0.00,Rainwise IP-100,2013-05-12 15:54:00,
2013-05-12 09:59:00,67.0,45.0,26.95,North,360,5.0,7.0,45,0.00,,,0.00,Rainwise IP-100,2013-05-12 15:59:00,
2013-05-12 10:04:00,68.0,45.0,26.93,South,180,1.0,6.0,44,0.00,,,0.00,Rainwise IP-100,2013-05-12 16:04:00,
2013-05-12 10:09:00,68.0,45.0,26.93,WSW,247,2.0,4.0,44,0.00,,,0.00,Rainwise IP-100,2013-05-12 16:09:00,
2013-05-12 10:14:00,68.0,45.0,26.93,SW,225,0.0,5.0,43,0.00,,,0.00,Rainwise IP-100,2013-05-12 16:14:00,
2013-05-12 10:19:00,68.0,45.0,26.93,WSW,247,1.0,3.0,44,0.00,,,0.00,Rainwise IP-100,2013-05-12 16:19:00,
2013-05-12 10:24:00,69.0,46.0,26.92,NNW,337,0.0,3.0,43,0.00,,,0.00,Rainwise IP-100,2013-05-12 16:24:00,
2013-05-12 10:29:00,67.0,44.0,26.92,WNW,292,3.0,6.0,44,0.00,,,0.00,Rainwise IP-100,2013-05-12 16:29:00,
2013-05-12 10:34:00,67.0,45.0,26.93,West,270,2.0,6.0,45,0.00,,,0.00,Rainwise IP-100,2013-05-12 16:34:00,
2013-05-12 10:39:00,67.0,45.0,26.93,West,270,3.0,5.0,45,0.00,,,0.00,Rainwise IP-100,2013-05-12 16:39:00,
2013-05-12 10:44:00,67.0,44.0,26.93,West,270,0.0,6.0,44,0.00,,,0.00,Rainwise IP-100,2013-05-12 16:44:00,
2013-05-12 10:49:00,68.0,46.0,26.93,North,360,2.0,5.0,45,0.00,,,0.00,Rainwise IP-100,2013-05-12 16:49:00,
2013-05-12 10:54:00,69.0,46.0,26.91,NW,315,2.0,5.0,43,0.00,,,0.00,Rainwise IP-100,2013-05-12 16:54:00,
2013-05-12 10:59:00,68.0,45.0,26.91,NNW,337,6.0,6.0,44,0.00,,,0.00,Rainwise IP-100,2013-05-12 16:59:00,
2013-05-12 11:04:00,68.0,45.0,26.92,NNE,22,0.0,6.0,43,0.00,,,0.00,Rainwise IP-100,2013-05-12 17:04:00,
2013-05-12 11:09:00,68.0,45.0,26.92,NE,45,1.0,6.0,44,0.00,,,0.00,Rainwise IP-100,2013-05-12 17:09:00,
2013-05-12 11:14:00,69.0,45.0,26.91,NNW,337,6.0,7.0,42,0.00,,,0.00,Rainwise IP-100,2013-05-12 17:14:00,
2013-05-12 11:19:00,69.0,45.0,26.91,West,270,5.0,7.0,42,0.00,,,0.00,Rainwise IP-100,2013-05-12 17:19:00,
2013-05-12 11:24:00,69.0,45.0,26.90,NW,315,2.0,7.0,42,0.00,,,0.00,Rainwise IP-100,2013-05-12 17:24:00,
2013-05-12 11:29:00,69.0,44.0,26.90,NNW,337,4.0,5.0,41,0.00,,,0.00,Rainwise IP-100,2013-05-12 17:29:00,
2013-05-12 11:34:00,69.0,44.0,26.89,North,360,5.0,7.0,41,0.00,,,0.00,Rainwise IP-100,2013-05-12 17:34:00,
2013-05-12 11:39:00,70.0,45.0,26.89,NNW,337,3.0,6.0,40,0.00,,,0.00,Rainwise IP-100,2013-05-12 17:39:00,
2013-05-12 11:44:00,71.0,43.0,26.89,NW,315,4.0,7.0,37,0.00,,,0.00,Rainwise IP-100,2013-05-12 17:44:00,
2013-05-12 11:49:00,71.0,44.0,26.89,West,270,4.0,7.0,38,0.00,,,0.00,Rainwise IP-100,2013-05-12 17:49:00,
2013-05-12 11:54:00,70.0,44.0,26.89,NW,315,1.0,6.0,39,0.00,,,0.00,Rainwise IP-100,2013-05-12 17:54:00,
2013-05-12 11:59:00,71.0,45.0,26.89,NNE,22,6.0,6.0,39,0.00,,,0.00,Rainwise IP-100,2013-05-12 17:59:00,
2013-05-12 12:04:00,72.0,44.0,26.87,West,270,1.0,6.0,37,0.00,,,0.00,Rainwise IP-100,2013-05-12 18:04:00,
2013-05-12 12:09:00,72.0,45.0,26.87,WSW,247,6.0,6.0,38,0.00,,,0.00,Rainwise IP-100,2013-05-12 18:09:00,
2013-05-12 12:14:00,72.0,46.0,26.87,NNW,337,1.0,7.0,39,0.00,,,0.00,Rainwise IP-100,2013-05-12 18:14:00,
2013-05-12 12:19:00,73.0,45.0,26.87,North,360,2.0,6.0,37,0.00,,,0.00,Rainwise IP-100,2013-05-12 18:19:00,
2013-05-12 12:24:00,74.0,45.0,26.85,NNW,337,4.0,7.0,35,0.00,,,0.00,Rainwise IP-100,2013-05-12 18:24:00,
2013-05-12 12:29:00,74.0,46.0,26.85,SE,135,3.0,7.0,36,0.00,,,0.00,Rainwise IP-100,2013-05-12 18:29:00,
2013-05-12 12:34:00,74.0,45.0,26.85,NNW,337,6.0,6.0,35,0.00,,,0.00,Rainwise IP-100,2013-05-12 18:34:00,
2013-05-12 12:39:00,73.0,45.0,26.85,North,360,1.0,8.0,36,0.00,,,0.00,Rainwise IP-100,2013-05-12 18:39:00,
2013-05-12 12:44:00,74.0,45.0,26.85,West,270,0.0,5.0,35,0.00,,,0.00,Rainwise IP-100,2013-05-12 18:44:00,
2013-05-12 12:49:00,74.0,45.0,26.85,NW,315,3.0,7.0,35,0.00,,,0.00,Rainwise IP-100,2013-05-12 18:49:00,
2013-05-12 12:54:00,75.0,46.0,26.83,NW,315,1.0,6.0,35,0.00,,,0.00,Rainwise IP-100,2013-05-12 18:54:00,
2013-05-12 12:59:00,76.0,46.0,26.83,West,270,1.0,5.0,34,0.00,,,0.00,Rainwise IP-100,2013-05-12 18:59:00,
2013-05-12 13:04:00,76.0,46.0,26.82,NW,315,2.0,7.0,34,0.00,,,0.00,Rainwise IP-100,2013-05-12 19:04:00,
2013-05-12 13:09:00,76.0,44.0,26.82,NE,45,6.0,7.0,32,0.00,,,0.00,Rainwise IP-100,2013-05-12 19:09:00,
2013-05-12 13:14:00,76.0,45.0,26.82,ESE,112,4.0,7.0,33,0.00,,,0.00,Rainwise IP-100,2013-05-12 19:14:00,
2013-05-12 13:19:00,76.0,45.0,26.82,ESE,112,3.0,7.0,33,0.00,,,0.00,Rainwise IP-100,2013-05-12 19:19:00,
2013-05-12 13:24:00,77.0,46.0,26.80,NW,315,0.0,7.0,33,0.00,,,0.00,Rainwise IP-100,2013-05-12 19:24:00,
2013-05-12 13:29:00,78.0,46.0,26.80,North,360,5.0,8.0,32,0.00,,,0.00,Rainwise IP-100,2013-05-12 19:29:00,
2013-05-12 13:34:00,79.0,46.0,26.78,NNW,337,3.0,6.0,31,0.00,,,0.00,Rainwise IP-100,2013-05-12 19:34:00,
2013-05-12 13:39:00,79.0,47.0,26.78,North,360,7.0,7.0,32,0.00,,,0.00,Rainwise IP-100,2013-05-12 19:39:00,
2013-05-12 13:44:00,79.0,46.0,26.78,NNW,337,5.0,9.0,31,0.00,,,0.00,Rainwise IP-100,2013-05-12 19:44:00,
2013-05-12 13:49:00,80.0,47.0,26.78,North,360,0.0,8.0,31,0.00,,,0.00,Rainwise IP-100,2013-05-12 19:49:00,
2013-05-12 13:54:00,81.0,47.0,26.76,NE,45,1.0,6.0,30,0.00,,,0.00,Rainwise IP-100,2013-05-12 19:54:00,
2013-05-12 13:59:00,80.0,47.0,26.76,WNW,292,2.0,9.0,31,0.00,,,0.00,Rainwise IP-100,2013-05-12 19:59:00,
2013-05-12 14:04:00,79.0,45.0,26.77,NNW,337,1.0,9.0,30,0.00,,,0.00,Rainwise IP-100,2013-05-12 20:04:00,
2013-05-12 14:09:00,80.0,48.0,26.77,NNE,22,2.0,9.0,33,0.00,,,0.00,Rainwise IP-100,2013-05-12 20:09:00,
2013-05-12 14:14:00,81.0,48.0,26.76,WNW,292,5.0,6.0,32,0.00,,,0.00,Rainwise IP-100,2013-05-12 20:14:00,
2013-05-12 14:19:00,80.0,47.5,26.76,WSW,247,2.0,9.0,32,0.00,,,0.00,Rainwise IP-100,2013-05-12 20:19:00,
2013-05-12 14:24:00,80.0,47.0,26.77,NNW,337,7.0,10.0,31,0.00,,,0.00,Rainwise IP-100,2013-05-12 20:24:00,
2013-05-12 14:29:00,79.0,47.0,26.77,NNW,337,8.0,11.0,32,0.00,,,0.00,Rainwise IP-100,2013-05-12 20:29:00,
2013-05-12 14:34:00,81.0,47.5,26.75,West,270,9.0,10.0,31,0.00,,,0.00,Rainwise IP-100,2013-05-12 20:34:00,
2013-05-12 14:39:00,81.0,46.0,26.75,WNW,292,5.0,10.0,29,0.00,,,0.00,Rainwise IP-100,2013-05-12 20:39:00,
2013-05-12 14:44:00,82.0,47.0,26.75,West,270,8.0,9.0,29,0.00,,,0.00,Rainwise IP-100,2013-05-12 20:44:00,
2013-05-12 14:49:00,82.0,47.0,26.75,WNW,292,5.0,11.0,29,0.00,,,0.00,Rainwise IP-100,2013-05-12 20:49:00,
2013-05-12 14:54:00,82.0,45.0,26.74,North,360,6.0,9.0,27,0.00,,,0.00,Rainwise IP-100,2013-05-12 20:54:00,
2013-05-12 14:59:00,84.0,47.0,26.74,NW,315,7.0,10.0,27,0.00,,,0.00,Rainwise IP-100,2013-05-12 20:59:00,
2013-05-12 15:04:00,84.0,48.0,26.73,SW,225,6.0,9.0,29,0.00,,,0.00,Rainwise IP-100,2013-05-12 21:04:00,
2013-05-12 15:09:00,84.0,47.0,26.73,NE,45,1.0,10.0,27,0.00,,,0.00,Rainwise IP-100,2013-05-12 21:09:00,
2013-05-12 15:14:00,85.0,45.0,26.72,WNW,292,7.0,7.0,25,0.00,,,0.00,Rainwise IP-100,2013-05-12 21:14:00,
2013-05-12 15:19:00,85.0,48.0,26.72,NNW,337,1.0,10.0,28,0.00,,,0.00,Rainwise IP-100,2013-05-12 21:19:00,
2013-05-12 15:24:00,86.0,45.0,26.71,NW,315,3.0,8.0,24,0.00,,,0.00,Rainwise IP-100,2013-05-12 21:24:00,
2013-05-12 15:29:00,84.0,47.0,26.71,WNW,292,4.0,9.0,27,0.00,,,0.00,Rainwise IP-100,2013-05-12 21:29:00,
2013-05-12 15:34:00,83.0,45.0,26.73,NW,315,5.0,8.0,26,0.00,,,0.00,Rainwise IP-100,2013-05-12 21:34:00,
2013-05-12 15:39:00,85.0,44.0,26.73,NW,315,6.0,7.0,24,0.00,,,0.00,Rainwise IP-100,2013-05-12 21:39:00,
2013-05-12 15:44:00,86.0,44.0,26.71,NNW,337,5.0,10.0,23,0.00,,,0.00,Rainwise IP-100,2013-05-12 21:44:00,
2013-05-12 15:49:00,86.0,44.0,26.71,NW,315,4.0,8.0,23,0.00,,,0.00,Rainwise IP-100,2013-05-12 21:49:00,
2013-05-12 15:54:00,85.0,44.0,26.71,NNE,22,2.0,9.0,24,0.00,,,0.00,Rainwise IP-100,2013-05-12 21:54:00,
2013-05-12 15:59:00,84.0,43.0,26.71,WNW,292,6.0,11.0,24,0.00,,,0.00,Rainwise IP-100,2013-05-12 21:59:00,
2013-05-12 16:04:00,85.0,43.0,26.71,NNE,22,8.0,11.0,23,0.00,,,0.00,Rainwise IP-100,2013-05-12 22:04:00,
2013-05-12 16:09:00,86.0,43.0,26.71,South,180,3.0,10.0,22,0.00,,,0.00,Rainwise IP-100,2013-05-12 22:09:00,
2013-05-12 16:14:00,85.0,42.0,26.71,WNW,292,8.0,10.0,22,0.00,,,0.00,Rainwise IP-100,2013-05-12 22:14:00,
2013-05-12 16:19:00,86.0,44.0,26.71,North,360,9.0,12.0,23,0.00,,,0.00,Rainwise IP-100,2013-05-12 22:19:00,
2013-05-12 16:24:00,85.0,43.0,26.70,WSW,247,9.0,12.0,23,0.00,,,0.00,Rainwise IP-100,2013-05-12 22:24:00,
2013-05-12 16:29:00,85.0,42.0,26.70,SSE,157,2.0,10.0,22,0.00,,,0.00,Rainwise IP-100,2013-05-12 22:29:00,
2013-05-12 16:34:00,84.0,41.0,26.71,West,270,6.0,15.0,22,0.00,,,0.00,Rainwise IP-100,2013-05-12 22:34:00,
2013-05-12 16:39:00,85.0,40.0,26.71,WNW,292,10.0,16.0,21,0.00,,,0.00,Rainwise IP-100,2013-05-12 22:39:00,
2013-05-12 16:44:00,85.0,40.0,26.70,West,270,5.0,17.0,21,0.00,,,0.00,Rainwise IP-100,2013-05-12 22:44:00,
2013-05-12 16:49:00,84.0,41.0,26.70,WSW,247,5.0,12.0,22,0.00,,,0.00,Rainwise IP-100,2013-05-12 22:49:00,
2013-05-12 16:54:00,85.0,42.0,26.70,WSW,247,9.0,13.0,22,0.00,,,0.00,Rainwise IP-100,2013-05-12 22:54:00,
2013-05-12 16:59:00,85.0,43.0,26.70,South,180,0.0,17.0,23,0.00,,,0.00,Rainwise IP-100,2013-05-12 22:59:00,
2013-05-12 17:04:00,85.0,42.0,26.70,West,270,3.0,19.0,22,0.00,,,0.00,Rainwise IP-100,2013-05-12 23:04:00,
2013-05-12 17:09:00,85.0,43.0,26.70,West,270,7.0,16.0,23,0.00,,,0.00,Rainwise IP-100,2013-05-12 23:09:00,
2013-05-12 17:14:00,85.0,43.0,26.70,WNW,292,10.0,19.0,23,0.00,,,0.00,Rainwise IP-100,2013-05-12 23:14:00,
2013-05-12 17:19:00,84.0,42.0,26.70,West,270,11.0,17.0,23,0.00,,,0.00,Rainwise IP-100,2013-05-12 23:19:00,
2013-05-12 17:24:00,84.0,43.0,26.71,West,270,10.0,15.0,24,0.00,,,0.00,Rainwise IP-100,2013-05-12 23:24:00,
2013-05-12 17:29:00,85.0,43.0,26.71,SSE,157,3.0,15.0,23,0.00,,,0.00,Rainwise IP-100,2013-05-12 23:29:00,
2013-05-12 17:34:00,85.0,42.0,26.70,West,270,3.0,14.0,22,0.00,,,0.00,Rainwise IP-100,2013-05-12 23:34:00,
2013-05-12 17:39:00,86.0,43.0,26.70,WNW,292,8.0,14.0,22,0.00,,,0.00,Rainwise IP-100,2013-05-12 23:39:00,
2013-05-12 17:44:00,84.0,41.0,26.71,West,270,10.0,21.0,22,0.00,,,0.00,Rainwise IP-100,2013-05-12 23:44:00,
2013-05-12 17:49:00,84.0,41.0,26.71,SSW,202,4.0,23.0,22,0.00,,,0.00,Rainwise IP-100,2013-05-12 23:49:00,
2013-05-12 17:54:00,84.0,41.0,26.71,WNW,292,13.0,18.0,22,0.00,,,0.00,Rainwise IP-100,2013-05-12 23:54:00,
2013-05-12 17:59:00,83.0,41.0,26.71,West,270,9.0,24.0,23,0.00,,,0.00,Rainwise IP-100,2013-05-12 23:59:00,
2013-05-12 18:04:00,84.0,41.0,26.70,West,270,7.0,17.0,22,0.00,,,0.00,Rainwise IP-100,2013-05-13 00:04:00,
2013-05-12 18:09:00,84.0,42.0,26.70,WSW,247,6.0,15.0,23,0.00,,,0.00,Rainwise IP-100,2013-05-13 00:09:00,
2013-05-12 18:14:00,84.0,41.0,26.71,West,270,12.0,16.0,22,0.00,,,0.00,Rainwise IP-100,2013-05-13 00:14:00,
2013-05-12 18:19:00,83.0,41.0,26.71,SW,225,6.0,16.0,23,0.00,,,0.00,Rainwise IP-100,2013-05-13 00:19:00,
2013-05-12 18:24:00,83.0,41.0,26.72,West,270,13.0,17.0,23,0.00,,,0.00,Rainwise IP-100,2013-05-13 00:24:00,
2013-05-12 18:29:00,83.0,42.0,26.72,WSW,247,7.0,20.0,24,0.00,,,0.00,Rainwise IP-100,2013-05-13 00:29:00,
2013-05-12 18:34:00,83.0,41.0,26.71,West,270,9.0,17.0,23,0.00,,,0.00,Rainwise IP-100,2013-05-13 00:34:00,
2013-05-12 18:39:00,82.0,41.0,26.71,West,270,10.0,19.0,24,0.00,,,0.00,Rainwise IP-100,2013-05-13 00:39:00,
2013-05-12 18:44:00,82.0,40.0,26.72,WNW,292,6.0,17.0,23,0.00,,,0.00,Rainwise IP-100,2013-05-13 00:44:00,
2013-05-12 18:49:00,82.0,41.0,26.72,West,270,7.0,16.0,24,0.00,,,0.00,Rainwise IP-100,2013-05-13 00:49:00,
2013-05-12 18:54:00,82.0,41.0,26.72,WSW,247,2.0,12.0,24,0.00,,,0.00,Rainwise IP-100,2013-05-13 00:54:00,
2013-05-12 18:59:00,81.0,42.0,26.72,West,270,2.0,10.0,25,0.00,,,0.00,Rainwise IP-100,2013-05-13 00:59:00,
2013-05-12 19:04:00,81.0,42.0,26.73,WSW,247,4.0,10.0,25,0.00,,,0.00,Rainwise IP-100,2013-05-13 01:04:00,
2013-05-12 19:09:00,81.0,43.0,26.73,West,270,5.0,9.0,26,0.00,,,0.00,Rainwise IP-100,2013-05-13 01:09:00,
2013-05-12 19:14:00,80.0,43.0,26.73,West,270,6.0,7.0,27,0.00,,,0.00,Rainwise IP-100,2013-05-13 01:14:00,
2013-05-12 19:19:00,80.0,43.0,26.73,West,270,6.0,10.0,27,0.00,,,0.00,Rainwise IP-100,2013-05-13 01:19:00,
2013-05-12 19:24:00,80.0,43.0,26.73,West,270,6.0,12.0,27,0.00,,,0.00,Rainwise IP-100,2013-05-13 01:24:00,
2013-05-12 19:29:00,79.0,43.0,26.73,West,270,0.0,9.0,28,0.00,,,0.00,Rainwise IP-100,2013-05-13 01:29:00,
2013-05-12 19:34:00,79.0,42.0,26.74,SSW,202,2.0,7.0,27,0.00,,,0.00,Rainwise IP-100,2013-05-13 01:34:00,
2013-05-12 19:39:00,79.0,43.0,26.74,WSW,247,4.0,7.0,28,0.00,,,0.00,Rainwise IP-100,2013-05-13 01:39:00,
2013-05-12 19:44:00,79.0,43.0,26.73,WNW,292,6.0,7.0,28,0.00,,,0.00,Rainwise IP-100,2013-05-13 01:44:00,
2013-05-12 19:49:00,79.0,44.0,26.73,West,270,3.0,9.0,29,0.00,,,0.00,Rainwise IP-100,2013-05-13 01:49:00,
2013-05-12 19:54:00,79.0,43.0,26.74,WSW,247,0.0,7.0,28,0.00,,,0.00,Rainwise IP-100,2013-05-13 01:54:00,
2013-05-12 19:59:00,79.0,44.0,26.74,WSW,247,1.0,10.0,29,0.00,,,0.00,Rainwise IP-100,2013-05-13 01:59:00,
2013-05-12 20:04:00,79.0,44.0,26.73,WSW,247,9.0,9.0,29,0.00,,,0.00,Rainwise IP-100,2013-05-13 02:04:00,
2013-05-12 20:09:00,79.0,43.0,26.73,SW,225,1.0,13.0,28,0.00,,,0.00,Rainwise IP-100,2013-05-13 02:09:00,
2013-05-12 20:14:00,79.0,44.0,26.73,SSW,202,0.0,9.0,29,0.00,,,0.00,Rainwise IP-100,2013-05-13 02:14:00,
2013-05-12 20:19:00,78.0,43.0,26.73,West,270,7.0,7.0,29,0.00,,,0.00,Rainwise IP-100,2013-05-13 02:19:00,
2013-05-12 20:24:00,78.0,43.0,26.75,West,270,7.0,12.0,29,0.00,,,0.00,Rainwise IP-100,2013-05-13 02:24:00,
2013-05-12 20:29:00,78.0,43.0,26.75,WSW,247,1.0,12.0,29,0.00,,,0.00,Rainwise IP-100,2013-05-13 02:29:00,
2013-05-12 20:34:00,77.0,42.0,26.75,WSW,247,2.0,9.0,29,0.00,,,0.00,Rainwise IP-100,2013-05-13 02:34:00,
2013-05-12 20:39:00,77.0,43.0,26.75,WSW,247,4.0,9.0,30,0.00,,,0.00,Rainwise IP-100,2013-05-13 02:39:00,
2013-05-12 20:44:00,77.0,43.0,26.75,WNW,292,3.0,8.0,30,0.00,,,0.00,Rainwise IP-100,2013-05-13 02:44:00,
2013-05-12 20:49:00,76.0,44.0,26.75,WNW,292,2.0,8.0,32,0.00,,,0.00,Rainwise IP-100,2013-05-13 02:49:00,
2013-05-12 20:54:00,76.0,44.0,26.76,WNW,292,1.0,6.0,32,0.00,,,0.00,Rainwise IP-100,2013-05-13 02:54:00,
2013-05-12 20:59:00,75.0,44.0,26.76,West,270,3.0,4.0,33,0.00,,,0.00,Rainwise IP-100,2013-05-13 02:59:00,
2013-05-12 21:04:00,74.0,43.0,26.77,West,270,0.0,3.0,33,0.00,,,0.00,Rainwise IP-100,2013-05-13 03:04:00,
2013-05-12 21:09:00,73.0,44.0,26.77,West,270,0.0,1.0,35,0.00,,,0.00,Rainwise IP-100,2013-05-13 03:09:00,
2013-05-12 21:14:00,73.0,45.0,26.78,SSE,157,1.0,1.0,37,0.00,,,0.00,Rainwise IP-100,2013-05-13 03:14:00,
2013-05-12 21:19:00,72.0,44.0,26.78,West,270,3.0,7.0,37,0.00,,,0.00,Rainwise IP-100,2013-05-13 03:19:00,
2013-05-12 21:24:00,73.0,44.0,26.79,WSW,247,0.0,9.0,35,0.00,,,0.00,Rainwise IP-100,2013-05-13 03:24:00,
2013-05-12 21:29:00,73.0,44.0,26.79,West,270,1.0,9.0,35,0.00,,,0.00,Rainwise IP-100,2013-05-13 03:29:00,
2013-05-12 21:34:00,73.0,44.0,26.79,SW,225,2.0,6.0,35,0.00,,,0.00,Rainwise IP-100,2013-05-13 03:34:00,
2013-05-12 21:39:00,72.0,43.0,26.79,WSW,247,2.0,4.0,36,0.00,,,0.00,Rainwise IP-100,2013-05-13 03:39:00,
2013-05-12 21:44:00,72.0,43.0,26.79,West,270,2.0,5.0,36,0.00,,,0.00,Rainwise IP-100,2013-05-13 03:44:00,
2013-05-12 21:49:00,71.0,43.0,26.79,West,270,1.0,3.0,37,0.00,,,0.00,Rainwise IP-100,2013-05-13 03:49:00,
2013-05-12 21:54:00,71.0,44.0,26.81,SSW,202,2.0,2.0,38,0.00,,,0.00,Rainwise IP-100,2013-05-13 03:54:00,
2013-05-12 21:59:00,70.0,44.0,26.81,SSW,202,1.0,3.0,39,0.00,,,0.00,Rainwise IP-100,2013-05-13 03:59:00,
2013-05-12 22:01:00,70.0,44.0,26.81,SSW,202,2.0,5.0,39,0.00,,,0.00,Rainwise IP-100,2013-05-13 04:01:00,
2013-05-12 22:06:00,70.0,45.0,26.81,SSW,202,0.0,3.0,41,0.00,,,0.00,Rainwise IP-100,2013-05-13 04:06:00,
2013-05-12 22:11:00,69.0,45.0,26.81,South,180,2.0,2.0,42,0.00,,,0.00,Rainwise IP-100,2013-05-13 04:11:00,
2013-05-12 22:16:00,69.0,46.0,26.82,South,180,0.0,4.0,43,0.00,,,0.00,Rainwise IP-100,2013-05-13 04:16:00,
2013-05-12 22:20:00,69.0,46.0,26.82,NE,45,2.0,3.0,43,0.00,,,0.00,Rainwise IP-100,2013-05-13 04:20:00,
2013-05-12 22:25:00,69.0,46.0,26.83,NE,45,2.0,4.0,43,0.00,,,0.00,Rainwise IP-100,2013-05-13 04:25:00,
2013-05-12 22:30:00,68.0,45.0,26.83,NE,45,0.0,3.0,44,0.00,,,0.00,Rainwise IP-100,2013-05-13 04:30:00,
2013-05-12 22:35:00,68.0,46.0,26.83,West,270,3.0,3.0,45,0.00,,,0.00,Rainwise IP-100,2013-05-13 04:35:00,
2013-05-12 22:40:00,68.0,45.0,26.83,WNW,292,3.0,4.0,44,0.00,,,0.00,Rainwise IP-100,2013-05-13 04:40:00,
2013-05-12 22:45:00,68.0,45.0,26.83,West,270,4.0,6.0,44,0.00,,,0.00,Rainwise IP-100,2013-05-13 04:45:00,
2013-05-12 22:50:00,68.0,45.0,26.83,West,270,0.0,5.0,43,0.00,,,0.00,Rainwise IP-100,2013-05-13 04:50:00,
2013-05-12 22:55:00,68.0,46.0,26.84,SW,225,1.0,4.0,45,0.00,,,0.00,Rainwise IP-100,2013-05-13 04:55:00,
2013-05-12 23:00:00,67.0,44.0,26.84,NW,315,2.0,6.0,44,0.00,,,0.00,Rainwise IP-100,2013-05-13 05:00:00,
2013-05-12 23:05:00,67.0,45.0,26.84,North,360,4.0,6.0,45,0.00,,,0.00,Rainwise IP-100,2013-05-13 05:05:00,
2013-05-12 23:10:00,66.0,44.0,26.84,WNW,292,1.0,6.0,45,0.00,,,0.00,Rainwise IP-100,2013-05-13 05:10:00,
2013-05-12 23:15:00,66.0,45.0,26.85,NW,315,0.0,3.0,47,0.00,,,0.00,Rainwise IP-100,2013-05-13 05:15:00,
2013-05-12 23:20:00,66.0,45.0,26.85,WNW,292,1.0,3.0,47,0.00,,,0.00,Rainwise IP-100,2013-05-13 05:20:00,
2013-05-12 23:25:00,65.0,44.0,26.85,WNW,292,0.0,2.0,47,0.00,,,0.00,Rainwise IP-100,2013-05-13 05:25:00,
2013-05-12 23:30:00,65.0,46.0,26.85,WNW,292,0.0,0.0,50,0.00,,,0.00,Rainwise IP-100,2013-05-13 05:30:00,
2013-05-12 23:35:00,65.0,46.0,26.86,WNW,292,0.0,0.0,50,0.00,,,0.00,Rainwise IP-100,2013-05-13 05:35:00,
2013-05-12 23:40:00,64.0,46.0,26.86,WNW,292,0.0,0.0,51,0.00,,,0.00,Rainwise IP-100,2013-05-13 05:40:00,
2013-05-12 23:45:00,64.0,46.0,26.86,WNW,292,0.0,0.0,51,0.00,,,0.00,Rainwise IP-100,2013-05-13 05:45:00,
2013-05-12 23:50:00,63.0,45.0,26.86,WNW,292,0.0,0.0,52,0.00,,,0.00,Rainwise IP-100,2013-05-13 05:50:00,
2013-05-12 23:55:00,63.0,46.0,26.87,WNW,292,0.0,0.0,54,0.00,,,0.00,Rainwise IP-100,2013-05-13 05:55:00,